Weather in Broome

Australia     17°57′16″S   122°14′21″E
temp.,
°C
wind,
m/s
gust,
m/s
humid.,
%
clouds,
%
prec.,
mm/h
press.,
hPa
HPBL,
m
9 december, thu
thu923:00+29nw6682100 0.0 1008614
02:00+29n668153 0.1 1008735
05:00+28n45829 0.1 1008568
08:00+29nnw457773 0.1 1010568
11:00+29w558060 0.0 1009405
14:00+30wnw997752 0.0 1006406
17:00+30wnw78796 0.0 1006548
20:00+29wnw68805 0.0 1007522
10 december, fri
fri1023:00+29wsw88805 0.0 1008633
02:00+29w4581100 0.0 1007474
05:00+29w5580100 0.0 1007463
08:00+29w447898 0.0 1008388
11:00+29wsw55795 0.0 1008464
14:00+29wnw88785 0.0 1005331
17:00+30w12127999 0.3 1003194
20:00+29nnw8983100 0.3 1007535
11 december, sat
sat1123:00+29wnw810838 0.0 1007510
02:00+29w6779100 0.0 1006577
05:00+29wnw6779100 0.0 1007562
08:00+29wnw667884 0.0 1008535
11:00+29wnw88775 0.0 1007461
14:00+30wnw787789 0.0 1005504
17:00+29w56785 0.0 1005615
20:00+29nw910829 0.0 1005475
12 december, sun
sun1223:00+29nw67812 0.0 1007620
02:00+29nw67815 0.0 1006619
05:00+29wnw338098 0.0 1008552
08:00+30nnw557738 0.1 1008515
11:00+30nw677692 0.0 1007429
14:00+29w67785 0.0 1005415
17:00+29wnw78780 0.0 1004431
20:00+29nw78812 0.0 1006510
13 december, mon
mon1323:00+29wnw568010 0.0 1007668
02:00+29nw67825 0.0 1005580
05:00+29wnw447957 0.0 1006718
08:00+29wnw44745 0.0 1008746
11:00+29wnw55785 0.0 1007487
14:00+29nw77775 0.0 1005400
17:00+30nw677778 0.0 1004428
20:00+29nw668184 0.0 1006474